Location: Lincoln
(40.8000°N, 96.6670°W)
Time: 15:31:11
(UTC-05:00)

BlueWalker 3 - Pass Details

Date: 07 February 2023
Orbit: 497 x 514 km, 53.2° (Epoch: 28 March)

Event Time Altitude Azimuth Distance (km) Brightness Sun altitude
Rises 19:12:06 0° 314° (NW) 2,605 6.2 -15.7°
Reaches altitude 10° 19:14:39 10° 329° (NNW) 1,723 5.0 -16.1°
Maximum altitude 19:17:47 23° 23° (NNE) 1,123 3.4 -16.7°
Enters shadow 19:18:11 22° 32° (NNE) 1,135 3.4 -16.8°
